Time,TemperatureF,DewpointF,PressureIn,WindDirection,WindDirectionDegrees,WindSpeedMPH,WindSpeedGustMPH,Humidity,HourlyPrecipIn,Conditions,Clouds,dailyrainin,SoftwareType,DateUTC
2013-04-18 00:00:00,59.9,59.9,29.95,SSE,161,0.0,0.0,100,0.00,,---,1.09,VWS V12.07,2013-04-18 04:00:00,
2013-04-18 00:30:00,59.3,59.3,29.93,SSE,161,0.0,2.0,100,0.00,,---,0.00,VWS V12.07,2013-04-18 04:30:00,
2013-04-18 01:00:00,58.9,58.9,29.93,SSE,161,0.0,0.0,100,0.00,,---,0.00,VWS V12.07,2013-04-18 05:00:00,
2013-04-18 01:30:00,58.3,58.3,29.94,SSE,161,0.0,0.0,100,0.00,,---,0.00,VWS V12.07,2013-04-18 05:30:00,
2013-04-18 02:00:00,57.6,57.6,29.95,SSE,161,0.0,1.0,100,0.00,,---,0.00,VWS V12.07,2013-04-18 06:00:00,
2013-04-18 02:30:00,57.8,57.8,29.95,SSE,161,0.0,0.0,100,0.00,,---,0.00,VWS V12.07,2013-04-18 06:30:00,
2013-04-18 03:00:00,58.0,58.0,29.95,SSE,161,0.0,0.0,100,0.00,,---,0.00,VWS V12.07,2013-04-18 07:00:00,
2013-04-18 03:30:00,58.0,58.0,29.95,SSE,161,0.0,0.0,100,0.00,,---,0.00,VWS V12.07,2013-04-18 07:30:00,
2013-04-18 04:00:00,58.4,58.4,29.97,SSE,161,0.0,0.0,100,0.00,,---,0.00,VWS V12.07,2013-04-18 08:00:00,
2013-04-18 04:30:00,60.4,60.4,29.97,East,92,0.0,2.0,100,0.00,,---,0.00,VWS V12.07,2013-04-18 08:30:00,
2013-04-18 05:00:00,60.7,60.7,29.97,SSE,157,0.0,0.0,100,0.00,,---,0.00,VWS V12.07,2013-04-18 09:00:00,
2013-04-18 05:30:00,60.7,60.7,29.98,SSE,157,0.0,0.0,100,0.00,,---,0.00,VWS V12.07,2013-04-18 09:30:00,
2013-04-18 06:00:00,60.5,60.5,29.98,SSE,157,0.0,0.0,100,0.00,,---,0.00,VWS V12.07,2013-04-18 10:00:00,
2013-04-18 06:30:00,60.2,60.2,29.99,WSW,249,0.0,0.0,100,0.00,,---,0.00,VWS V12.07,2013-04-18 10:30:00,
2013-04-18 07:00:00,60.2,60.2,29.99,WSW,249,0.0,0.0,100,0.00,,---,0.00,VWS V12.07,2013-04-18 11:00:00,
2013-04-18 07:30:00,59.9,59.9,29.99,WSW,249,0.0,0.0,100,0.00,,---,0.00,VWS V12.07,2013-04-18 11:30:00,
2013-04-18 08:00:00,60.7,60.7,29.99,WSW,249,0.0,0.0,100,0.00,,---,0.00,VWS V12.07,2013-04-18 12:00:00,
2013-04-18 08:30:00,61.5,61.5,29.99,ESE,118,0.0,0.0,100,0.00,,---,0.00,VWS V12.07,2013-04-18 12:30:00,
2013-04-18 09:00:00,62.0,62.0,29.98,NE,51,0.0,2.0,100,0.00,,---,0.00,VWS V12.07,2013-04-18 13:00:00,
2013-04-18 09:30:00,62.7,62.7,29.99,SSE,163,0.0,1.0,100,0.00,,---,0.00,VWS V12.07,2013-04-18 13:30:00,
2013-04-18 10:00:00,64.5,61.2,29.98,South,175,0.0,5.0,89,0.00,,---,0.00,VWS V12.07,2013-04-18 14:00:00,
2013-04-18 10:30:00,66.1,59.8,29.99,South,175,0.0,2.0,80,0.00,,---,0.00,VWS V12.07,2013-04-18 14:30:00,
2013-04-18 11:00:00,67.3,59.1,29.99,ESE,106,0.0,5.0,75,0.00,,---,0.00,VWS V12.07,2013-04-18 15:00:00,
2013-04-18 11:30:00,68.4,57.4,29.99,SSW,212,0.0,5.0,68,0.00,,---,0.00,VWS V12.07,2013-04-18 15:30:00,
2013-04-18 12:00:00,69.4,59.2,29.99,SE,135,3.0,7.0,70,0.00,,---,0.00,VWS V12.07,2013-04-18 16:00:00,
2013-04-18 12:30:00,70.4,57.7,29.97,South,169,3.0,12.0,64,0.00,,---,0.00,VWS V12.07,2013-04-18 16:30:00,
2013-04-18 13:00:00,71.5,56.4,29.96,SSE,150,6.0,6.0,59,0.00,,---,0.00,VWS V12.07,2013-04-18 17:00:00,
2013-04-18 13:30:00,71.8,54.8,29.94,SSE,155,4.0,12.0,55,0.00,,---,0.00,VWS V12.07,2013-04-18 17:30:00,
2013-04-18 14:00:00,72.1,53.0,29.93,WSW,248,6.0,13.0,51,0.00,,---,0.00,VWS V12.07,2013-04-18 18:00:00,
2013-04-18 14:30:00,73.2,55.6,29.92,SSW,210,2.0,7.0,54,0.00,,---,0.00,VWS V12.07,2013-04-18 18:30:00,
2013-04-18 15:00:00,73.2,56.6,29.92,South,171,6.0,9.0,56,0.00,,---,0.00,VWS V12.07,2013-04-18 19:00:00,
2013-04-18 15:30:00,73.9,55.2,29.90,SW,216,2.0,7.0,52,0.00,,---,0.00,VWS V12.07,2013-04-18 19:30:00,
2013-04-18 16:00:00,74.4,56.2,29.88,SW,229,0.0,7.0,53,0.00,,---,0.00,VWS V12.07,2013-04-18 20:00:00,
2013-04-18 16:30:00,73.7,54.5,29.86,South,171,9.0,9.0,51,0.00,,---,0.00,VWS V12.07,2013-04-18 20:30:00,
2013-04-18 17:00:00,74.6,55.3,29.85,NW,323,1.0,18.0,51,0.00,,---,0.00,VWS V12.07,2013-04-18 21:00:00,
2013-04-18 17:30:00,75.3,56.5,29.84,WSW,240,2.0,10.0,52,0.00,,---,0.00,VWS V12.07,2013-04-18 21:30:00,
2013-04-18 18:00:00,73.5,57.3,29.83,South,169,0.0,3.0,57,0.00,,---,0.00,VWS V12.07,2013-04-18 22:00:00,
2013-04-18 18:30:00,72.1,56.5,29.83,South,178,1.0,6.0,58,0.00,,---,0.00,VWS V12.07,2013-04-18 22:30:00,
2013-04-18 19:00:00,72.0,56.4,29.83,SSW,206,3.0,5.0,58,0.00,,---,0.00,VWS V12.07,2013-04-18 23:00:00,
2013-04-18 19:30:00,70.9,57.2,29.83,ESE,116,0.0,5.0,62,0.00,,---,0.00,VWS V12.07,2013-04-18 23:30:00,
2013-04-18 20:00:00,69.8,55.8,29.83,SSW,195,0.0,3.0,61,0.00,,---,0.00,VWS V12.07,2013-04-19 00:00:00,
2013-04-18 20:30:00,69.1,56.8,29.82,South,180,0.0,3.0,65,0.00,,---,0.00,VWS V12.07,2013-04-19 00:30:00,
2013-04-18 21:00:00,67.6,57.5,29.82,South,169,0.0,1.0,70,0.00,,---,0.00,VWS V12.07,2013-04-19 01:00:00,
2013-04-18 21:30:00,67.1,57.4,29.83,SSW,194,0.0,3.0,71,0.00,,---,0.00,VWS V12.07,2013-04-19 01:30:00,
2013-04-18 22:00:00,66.4,58.2,29.83,SSW,211,1.0,1.0,75,0.00,,---,0.00,VWS V12.07,2013-04-19 02:00:00,
2013-04-18 22:30:00,66.0,58.6,29.83,SSE,159,0.0,0.0,77,0.00,,---,0.00,VWS V12.07,2013-04-19 02:30:00,
2013-04-18 23:00:00,67.4,58.8,29.80,South,176,7.0,7.0,74,0.00,,---,0.00,VWS V12.07,2013-04-19 03:00:00,
2013-04-18 23:30:00,67.9,58.9,29.79,SE,125,0.0,4.0,73,0.00,,---,0.00,VWS V12.07,2013-04-19 03:30:00,